Regional Weather Roundup
Issued by NWS Sioux Falls, SD

Home | Current Version | Previous Version | Graphics & Text | Print | Product List | Glossary On
Versions: 1 2 3 4 5 6 7 8 9 10 11 12 13 14 15 16 17 18 19 20 21 22 23 24 25 26 27 28 29 30 31 32 33 34 35 36 37 38 39 40 41 42 43 44 45 46 47 48 49 50
000
ASUS43 KFSD 010702
RWRFSD

WEATHER ROUNDUP FOR SE SOUTH DAKOTA/SW MINNESOTA/NW IOWA
NATIONAL WEATHER SERVICE SIOUX FALLS SD
200 AM CDT WED OCT 01 2014

NOTE: "FAIR" INDICATES FEW OR NO CLOUDS BELOW 12,000 FEET WITH NO
SIGNIFICANT WEATHER AND OR OBSTRUCTIONS TO VISIBILITY.


SDZ038>040-050-052>070-010800-
SOUTHEAST SOUTH DAKOTA

CITY           SKY/WX    TMP DP  RH WIND       PRES   REMARKS
CHAMBERLAIN    PTCLDY    47  45  91 CALM      29.69R
HURON          CLOUDY    61  59  93 S6        29.67S
MADISON        CLOUDY    59  59 100 S10G16    29.72S
MITCHELL       MOCLDY    63  60  90 S13G20    29.68F
SIOUX FALLS    CLOUDY    63  60  90 S14       29.74F
WINNER         FAIR      58  46  64 CALM      29.70R
YANKTON        CLOUDY    63  61  94 SE8       29.72S
$$

MNZ071-072-080-081-089-090-097-098-010800-
SOUTHWEST MINNESOTA

CITY           SKY/WX    TMP DP  RH WIND       PRES   REMARKS
FAIRMONT       CLOUDY    57  52  82 SE12G20   29.80S
JACKSON        CLOUDY    59  55  88 S10       29.79S
LUVERNE        CLOUDY    63  59  88 S9        29.77S FOG
MARSHALL       CLOUDY    63  55  77 S15       29.73F
MONTEVIDEO     CLOUDY    61  59  94 S6        29.75R
PIPESTONE      CLOUDY    61  59  94 S12       29.75F
REDWOOD FALLS  CLOUDY    59  56  89 S12       29.77S
TRACY          CLOUDY    62  59  91 S14       29.76S
WINDOM         CLOUDY    61  57  88 S10G18    29.79R
WORTHINGTON    CLOUDY    61  57  88 S14G20    29.78F
$$

IAZ001>003-012>014-020>022-031-032-NEZ013-014-SDZ071-010800-
NORTHWEST IOWA

CITY           SKY/WX    TMP DP  RH WIND       PRES   REMARKS
CHEROKEE       CLOUDY    60  59  98 SE13G18   29.78R
DENISON        RAIN      63  63 100 SE18G29   29.77S
ESTHERVILLE    CLOUDY    57  57 100 SE13      29.79F FOG
LE MARS          N/A     63  61  94 SE12      29.75F
ORANGE CITY    CLOUDY    63  59  88 S9        29.76F
SHELDON        CLOUDY    61  61 100 S13       29.76S
SIOUX CITY     CLOUDY    62  61  96 SE7       29.74F
SPENCER        CLOUDY    59  56  89 SE13G24   29.79R
STORM LAKE     CLOUDY    59  57  94 SE14G21   29.80S FOG
$$

ABBREVIATIONS USED IN REMARKS
   TC - TEMPERATURE IN CELSIUS
  WCI - WIND CHILL INDEX
   HX - HEAT INDEX
  VSB - VISIBILITY




USA.gov is the U.S. government's official web portal to all federal, state and local government web resources and services.